Portada
METAR-TAF:

METAR-TAF

Aeropuertos :

El Bayadh, Argelia

latitud: 33-43-15N, longitud: 1-05-29E, altitud: 1366 m

Observación

El informe se hizo hace 4 horas y 4 minutos, a las 12:00 UTC
Viento 8 kt del norte
Temperatura 25°C
Humedad 34%
Presión 1020 hPa
Visibilidad: 8000 m

METAR: DAOY 201200Z 36008KT 8000 NSC 25/08 Q1020

Hora: 17:04 (16:04 UTC)


TAF: falta

Observaciones y pronósticos meteorológicos de más de 4000 aeropuertos (mensajes METAR y TAF).

Los puntos amarillos y rojos representan las estaciones disponibles.

Ponga el ratón en el punto deseado para ver el nombre de la estación.

Haga clic para ver las observaciones y los pronósticos meteorológicos.

Para cambiar el mapa : haga clic en los botones verdes con una cruz de color negro para hacer un zoom, en el botón verde con un guión para alejar o en las flechas verdes para mapas adyacentes.


METAR-TAF: